FW1203 Weather Reports


Display with metric or nautical units.
time (UTC)temp
F
wind
direction
speed
MPH
gust
MPH
rain 1hr
in
rain 24hr
in
rain mn
in
humidity
%
barometer
mb
20260506080333 46 0 0.0 0.0 0.00 0.00 0.00 64 1010.1
20260506073333 47 256 0.0 3.0 0.00 0.00 0.00 62 1009.9
20260506072833 47 256 0.0 3.0 0.00 0.00 0.00 62 1009.9
20260506072333 47 255 0.0 2.0 0.00 0.00 0.00 62 1009.9
20260506071833 47 260 0.0 2.0 0.00 0.00 0.00 62 1009.9
20260506071333 47 325 0.0 3.0 0.00 0.00 0.00 64 1009.9
20260506070833 47 260 0.0 3.0 0.00 0.00 0.00 64 1009.9
20260506070333 47 210 0.0 3.0 0.00 0.00 0.00 65 1009.8
20260506062333 48 239 0.0 2.0 0.00 0.00 0.00 64 1010.0
20260506061833 48 25 0.0 4.0 0.00 0.00 0.00 65 1010.0
20260506061333 48 283 0.0 4.0 0.00 0.00 0.00 65 1009.9
20260506060833 48 245 0.0 2.0 0.00 0.00 0.00 64 1010.1
20260506060333 49 266 0.0 2.0 0.00 0.00 0.00 65 1010.1
20260506050833 51 228 0.0 2.0 0.00 0.00 0.00 62 1009.5
20260506050333 51 208 0.0 2.0 0.00 0.00 0.00 62 1009.3
20260506044833 51 0 0.0 0.0 0.00 0.00 0.00 62 1009.3
20260506044333 52 0 0.0 0.0 0.00 0.00 0.00 61 1009.4
20260506043833 52 0 0.0 0.0 0.00 0.00 0.00 60 1009.4
20260506043333 52 0 0.0 0.0 0.00 0.00 0.00 59 1009.4
20260506042833 52 0 0.0 0.0 0.00 0.00 0.00 58 1009.4
20260506042333 52 193 0.0 1.0 0.00 0.00 0.00 59 1009.4
20260506041833 52 193 0.0 1.0 0.00 0.00 0.00 59 1009.3
20260506041333 52 194 0.0 1.0 0.00 0.00 0.00 59 1009.5
20260506040833 52 194 0.0 3.0 0.00 0.00 0.00 58 1009.3
20260506040333 52 167 0.0 3.0 0.00 0.00 0.00 57 1009.2
20260506035833 53 0 0.0 0.0 0.00 0.00 0.00 57 1009.1
20260506035333 53 187 0.0 1.0 0.00 0.00 0.00 55 1009.1
20260506034833 53 187 0.0 1.0 0.00 0.00 0.00 54 1009.2
20260506034333 53 187 0.0 1.0 0.00 0.00 0.00 52 1009.0
20260506033833 52 187 0.0 1.0 0.00 0.00 0.00 52 1008.9
20260506033333 52 189 0.0 1.0 0.00 0.00 0.00 51 1008.7
20260506032833 52 194 0.0 1.0 0.00 0.00 0.00 52 1008.6
20260506032333 52 0 0.0 0.0 0.00 0.00 0.00 54 1008.6
20260506031833 52 0 0.0 0.0 0.00 0.00 0.00 53 1008.7
20260506031333 52 0 0.0 0.0 0.00 0.00 0.00 54 1008.7
20260506030833 53 0 0.0 0.0 0.00 0.00 0.00 54 1008.5
20260506030333 53 0 0.0 0.0 0.00 0.00 0.00 53 1008.6
20260506025833 53 0 0.0 0.0 0.00 0.00 0.00 53 1008.7
20260506025333 53 0 0.0 0.0 0.00 0.00 0.00 51 1008.7
20260506024833 53 0 0.0 0.0 0.00 0.00 0.00 52 1008.7
20260506024333 53 0 0.0 0.0 0.00 0.00 0.00 51 1008.7
20260506023833 53 0 0.0 0.0 0.00 0.00 0.00 50 1008.4
20260506023333 54 0 0.0 0.0 0.00 0.00 0.00 50 1008.4
20260506022833 54 0 0.0 0.0 0.00 0.00 0.00 51 1008.4
20260506022333 54 0 0.0 0.0 0.00 0.00 0.00 50 1008.3
20260506021833 54 0 0.0 0.0 0.00 0.00 0.00 50 1008.3
20260506021333 54 0 0.0 0.0 0.00 0.00 0.00 50 1008.2
20260506020833 54 0 0.0 0.0 0.00 0.00 0.00 50 1008.2
20260506020333 54 0 0.0 0.0 0.00 0.00 0.00 48 1007.9
20260506015833 54 0 0.0 0.0 0.00 0.00 0.00 48 1007.9
20260506015333 54 0 0.0 0.0 0.00 0.00 0.00 48 1008.0
20260506014833 55 0 0.0 0.0 0.00 0.00 0.00 47 1007.9
20260506013833 55 0 0.0 0.0 0.00 0.00 0.00 46 1007.4
20260506013333 55 0 0.0 0.0 0.00 0.00 0.00 47 1007.5
20260506012833 55 0 0.0 0.0 0.00 0.00 0.00 46 1007.5
20260506012333 55 0 0.0 0.0 0.00 0.00 0.00 46 1007.5
20260506011833 55 0 0.0 0.0 0.00 0.00 0.00 46 1007.4
20260506011333 55 0 0.0 0.0 0.00 0.00 0.00 47 1007.2
20260506010833 55 0 0.0 0.0 0.00 0.00 0.00 46 1007.2
20260506010333 55 0 0.0 0.0 0.00 0.00 0.00 46 1007.1
20260506005833 56 0 0.0 0.0 0.00 0.00 0.00 45 1007.1
20260506005333 56 0 0.0 0.0 0.00 0.00 0.00 46 1007.1
20260506004833 56 0 0.0 0.0 0.00 0.00 0.00 46 1007.0
20260506004333 56 0 0.0 0.0 0.00 0.00 0.00 45 1007.0
20260506003833 56 0 0.0 0.0 0.00 0.00 0.00 44 1006.9
20260506003333 56 0 0.0 0.0 0.00 0.00 0.00 44 1006.7
20260506002833 56 0 0.0 0.0 0.00 0.00 0.00 45 1006.8
20260506002333 56 0 0.0 0.0 0.00 0.00 0.00 44 1006.9
20260506001833 57 0 0.0 0.0 0.00 0.00 0.00 44 1007.0
20260506001333 57 0 0.0 0.0 0.00 0.00 0.00 43 1006.9
20260506000833 57 0 0.0 0.0 0.00 0.00 0.00 42 1006.8
20260506000333 57 277 0.0 1.0 0.00 0.00 0.00 42 1006.8
20260505235333 57 278 0.0 2.0 0.00 0.00 0.00 43 1006.8
20260505234833 57 278 0.0 2.0 0.00 0.00 0.00 41 1006.8
20260505234333 57 0 0.0 0.0 0.00 0.00 0.00 43 1006.9
20260505233833 57 0 0.0 0.0 0.00 0.00 0.00 42 1006.9
20260505233333 57 0 0.0 0.0 0.00 0.00 0.00 42 1006.9
20260505232833 57 278 0.0 1.0 0.00 0.00 0.00 42 1006.9
20260505232333 57 278 0.0 2.0 0.00 0.00 0.00 43 1006.9
20260505231833 57 267 0.0 2.0 0.00 0.00 0.00 41 1006.9
20260505231333 58 277 0.0 3.0 0.00 0.00 0.00 42 1007.0
20260505230833 58 280 0.0 3.0 0.00 0.00 0.00 41 1007.0
20260505230333 58 258 1.0 3.0 0.00 0.00 0.00 39 1007.0
20260505225833 58 279 0.0 3.0 0.00 0.00 0.00 40 1007.1
20260505225333 58 26 0.0 3.0 0.00 0.00 0.00 41 1007.3
20260505224833 58 278 0.0 3.0 0.00 0.00 0.00 41 1007.2
20260505224333 58 263 0.0 4.0 0.00 0.00 0.00 41 1007.1
20260505223833 58 262 0.0 4.0 0.00 0.00 0.00 39 1007.1
20260505223333 58 0 0.0 0.0 0.00 0.00 0.00 43 1007.0
20260505222833 58 0 0.0 0.0 0.00 0.00 0.00 43 1007.0
20260505222333 58 0 0.0 0.0 0.00 0.00 0.00 41 1007.0
20260505221833 58 0 0.0 0.0 0.00 0.00 0.00 41 1007.0
20260505221333 58 261 0.0 1.0 0.00 0.00 0.00 41 1007.1
20260505220833 58 261 0.0 1.0 0.00 0.00 0.00 41 1007.2
20260505220333 58 0 0.0 0.0 0.00 0.00 0.00 43 1007.1
20260505215833 58 261 0.0 2.0 0.00 0.00 0.00 40 1007.2
20260505215333 58 261 0.0 2.0 0.00 0.00 0.00 39 1007.1
20260505214833 58 259 0.0 3.0 0.00 0.00 0.00 40 1007.0
20260505214333 58 259 0.0 3.0 0.00 0.00 0.00 40 1007.0
20260505213832 59 258 0.0 3.0 0.00 0.00 0.00 40 1007.0
20260505213333 59 259 0.0 3.0 0.00 0.00 0.00 39 1007.0
20260505212833 59 262 0.0 2.0 0.00 0.00 0.00 40 1007.0
20260505212333 59 261 0.0 2.0 0.00 0.00 0.00 39 1007.0
20260505211833 58 261 0.0 2.0 0.00 0.00 0.00 42 1007.1
20260505211333 58 264 0.0 1.0 0.00 0.00 0.00 42 1007.1
20260505210833 58 267 0.0 3.0 0.00 0.00 0.00 38 1007.1
20260505210333 58 272 0.0 3.0 0.00 0.00 0.00 37 1007.0
20260505205833 58 269 0.0 4.0 0.00 0.00 0.00 38 1007.0
20260505205333 59 273 0.0 4.0 0.00 0.00 0.00 39 1007.1
20260505204833 59 271 0.0 4.0 0.00 0.00 0.00 38 1007.2
20260505204333 59 291 1.0 4.0 0.00 0.00 0.00 39 1007.2
20260505203833 59 254 0.0 2.0 0.00 0.00 0.00 42 1007.1
20260505203333 59 230 0.0 2.0 0.00 0.00 0.00 38 1007.1
20260505202833 59 261 0.0 3.0 0.00 0.00 0.00 39 1007.3
20260505202333 59 261 0.0 4.0 0.00 0.00 0.00 41 1007.4
20260505201833 59 267 0.0 4.0 0.00 0.00 0.00 37 1007.4
20260505201333 59 271 0.0 3.0 0.00 0.00 0.00 37 1007.4
20260505200833 59 270 0.0 3.0 0.00 0.00 0.00 37 1007.3
20260505200333 59 269 1.0 4.0 0.00 0.00 0.00 38 1007.2
20260505195833 59 259 1.0 4.0 0.00 0.00 0.00 36 1007.3
20260505195333 60 235 1.0 4.0 0.00 0.00 0.00 37 1007.2
20260505194833 60 271 0.0 2.0 0.00 0.00 0.00 41 1007.1
20260505194333 60 187 0.0 2.0 0.00 0.00 0.00 38 1007.2
20260505193833 59 187 0.0 2.0 0.00 0.00 0.00 40 1007.3
20260505193333 59 257 0.0 2.0 0.00 0.00 0.00 39 1007.4
20260505192833 59 259 0.0 3.0 0.00 0.00 0.00 40 1007.5
20260505192333 59 265 0.0 4.0 0.00 0.00 0.00 40 1007.6
20260505191833 59 276 1.0 6.0 0.00 0.00 0.00 40 1007.6
20260505191333 59 285 0.0 6.0 0.00 0.00 0.00 42 1007.5
20260505190833 59 223 0.0 3.0 0.00 0.00 0.00 43 1007.5
20260505190333 58 198 1.0 3.0 0.00 0.00 0.00 42 1007.4
20260505185833 58 282 0.0 2.0 0.00 0.00 0.00 41 1007.6
20260505185333 59 281 1.0 6.0 0.00 0.00 0.00 43 1007.6
20260505184833 59 287 1.0 6.0 0.00 0.00 0.00 43 1007.6
20260505184333 59 294 0.0 5.0 0.00 0.00 0.00 42 1007.6
20260505183833 59 269 1.0 5.0 0.00 0.00 0.00 42 1007.6
20260505183333 59 196 0.0 4.0 0.00 0.00 0.00 40 1007.6
20260505182833 59 235 1.0 4.0 0.00 0.00 0.00 41 1007.6
20260505182333 59 244 1.0 4.0 0.00 0.00 0.00 42 1007.6
20260505181833 59 248 1.0 4.0 0.00 0.00 0.00 41 1007.4
20260505181333 59 273 0.0 4.0 0.00 0.00 0.00 43 1007.4
20260505180833 59 253 1.0 4.0 0.00 0.00 0.00 40 1007.3
20260505180333 59 264 0.0 3.0 0.00 0.00 0.00 41 1007.3
20260505175833 59 296 0.0 3.0 0.00 0.00 0.00 41 1007.1
20260505175333 59 282 1.0 3.0 0.00 0.00 0.00 44 1007.2
20260505174833 59 284 1.0 4.0 0.00 0.00 0.00 42 1007.1
20260505174333 59 285 1.0 4.0 0.00 0.00 0.00 41 1007.1
20260505173833 60 271 1.0 4.0 0.00 0.00 0.00 38 1007.2
20260505173333 60 278 1.0 4.0 0.00 0.00 0.00 40 1007.2
20260505172833 60 269 0.0 4.0 0.00 0.00 0.00 42 1007.1
20260505172333 60 220 1.0 4.0 0.00 0.00 0.00 39 1007.2
20260505171833 60 301 1.0 3.0 0.00 0.00 0.00 42 1007.1
20260505171333 59 285 1.0 3.0 0.00 0.00 0.00 42 1007.1
20260505170833 59 269 1.0 3.0 0.00 0.00 0.00 42 1007.1
20260505170333 59 291 1.0 4.0 0.00 0.00 0.00 41 1006.9
20260505165833 60 287 1.0 4.0 0.00 0.00 0.00 44 1007.0
20260505165333 60 249 1.0 3.0 0.00 0.00 0.00 46 1007.2
20260505164833 59 287 0.0 3.0 0.00 0.00 0.00 47 1007.3
20260505164333 59 230 1.0 3.0 0.00 0.00 0.00 44 1007.2
20260505163833 59 272 0.0 2.0 0.00 0.00 0.00 44 1007.2
20260505163333 58 242 0.0 3.0 0.00 0.00 0.00 45 1007.1
20260505162833 58 274 0.0 4.0 0.00 0.00 0.00 46 1007.0
20260505162333 58 265 1.0 4.0 0.00 0.00 0.00 45 1007.1
20260505161833 58 270 0.0 5.0 0.00 0.00 0.00 42 1007.0
20260505161333 58 290 1.0 5.0 0.00 0.00 0.00 45 1006.9
20260505160833 58 263 1.0 3.0 0.00 0.00 0.00 45 1007.2
20260505160333 58 274 1.0 3.0 0.00 0.00 0.00 45 1007.1
20260505153333 56 278 0.0 2.0 0.00 0.00 0.00 48 1006.6
20260505152833 55 303 0.0 4.0 0.00 0.00 0.00 48 1006.9
20260505152333 55 269 1.0 4.0 0.00 0.00 0.00 46 1006.9
20260505151833 55 286 1.0 3.0 0.00 0.00 0.00 48 1007.0
20260505151333 55 284 0.0 3.0 0.00 0.00 0.00 50 1007.0
20260505150833 55 260 0.0 3.0 0.00 0.00 0.00 49 1007.1
20260505150333 55 253 0.0 2.0 0.00 0.00 0.00 48 1006.8
20260505140333 52 0 0.0 0.0 0.00 0.00 0.00 50 1007.8
20260505124833 51 0 0.0 0.0 0.00 0.00 0.00 57 1006.8
20260505124333 50 0 0.0 0.0 0.00 0.00 0.00 56 1006.8
20260505123833 50 0 0.0 0.0 0.00 0.00 0.00 56 1007.0
20260505123333 50 0 0.0 0.0 0.00 0.00 0.00 55 1007.3
20260505122833 51 0 0.0 0.0 0.00 0.00 0.00 55 1007.0
20260505122333 51 0 0.0 0.0 0.00 0.00 0.00 54 1007.2
20260505121833 51 0 0.0 0.0 0.00 0.00 0.00 53 1007.0
20260505121333 51 0 0.0 0.0 0.00 0.00 0.00 53 1006.9
20260505120833 51 0 0.0 0.0 0.00 0.00 0.00 53 1007.1
20260505120333 51 182 0.0 1.0 0.00 0.00 0.00 53 1007.1
20260505115833 51 182 0.0 1.0 0.00 0.00 0.00 53 1006.5
20260505115333 51 0 0.0 0.0 0.00 0.00 0.00 54 1006.7
20260505114833 51 0 0.0 0.0 0.00 0.00 0.00 54 1006.5
20260505114333 51 0 0.0 0.0 0.00 0.00 0.00 53 1006.1
20260505113833 51 0 0.0 0.0 0.00 0.00 0.00 54 1006.1
20260505113333 51 0 0.0 0.0 0.00 0.00 0.00 53 1005.8
20260505112833 51 201 0.0 1.0 0.00 0.00 0.00 53 1005.6
20260505112333 51 201 0.0 2.0 0.00 0.00 0.00 53 1004.7
20260505111833 52 193 0.0 2.0 0.00 0.00 0.00 54 1005.2
20260505111333 52 198 0.0 1.0 0.00 0.00 0.00 55 1004.9
20260505110833 52 262 0.0 2.0 0.00 0.00 0.00 56 1005.3
20260505110333 52 262 0.0 2.0 0.00 0.00 0.00 56 1005.3
20260505101833 53 286 0.0 1.0 0.00 0.00 0.00 61 1004.0
20260505101333 54 216 0.0 1.0 0.00 0.00 0.00 61 1004.5
20260505100833 54 146 0.0 3.0 0.00 0.00 0.00 60 1004.4
20260505100333 54 128 0.0 3.0 0.00 0.00 0.00 59 1004.4
20260505095833 54 182 0.0 1.0 0.00 0.00 0.00 58 1004.5
20260505095333 55 194 0.0 1.0 0.00 0.00 0.00 58 1004.6
20260505094833 55 271 0.0 2.0 0.00 0.00 0.00 57 1004.7
20260505094333 55 271 0.0 2.0 0.00 0.00 0.00 56 1004.7
20260505093833 55 229 0.0 2.0 0.00 0.00 0.00 56 1004.3
20260505093333 55 223 0.0 2.0 0.00 0.00 0.00 55 1004.2
20260505092833 56 0 0.0 0.0 0.00 0.00 0.00 54 1004.2
20260505092333 56 0 0.0 0.0 0.00 0.00 0.00 54 1004.1
20260505091833 56 254 0.0 1.0 0.00 0.00 0.00 53 1003.9
20260505091333 56 254 0.0 2.0 0.00 0.00 0.00 53 1003.8
20260505090833 56 277 0.0 2.0 0.00 0.00 0.00 53 1003.9
20260505090333 56 196 0.0 3.0 0.00 0.00 0.00 53 1003.6
20260505085833 56 163 0.0 3.0 0.00 0.00 0.00 52 1003.5
20260505085333 57 229 0.0 2.0 0.00 0.00 0.00 53 1003.5
20260505084833 57 0 0.0 0.0 0.00 0.00 0.00 54 1003.3
20260505084333 57 232 0.0 2.0 0.00 0.00 0.00 53 1003.1
20260505083833 57 232 0.0 2.0 0.00 0.00 0.00 53 1002.8
20260505083333 58 284 0.0 1.0 0.00 0.00 0.00 52 1002.8
20260505082833 58 284 0.0 3.0 0.00 0.00 0.00 52 1002.3
20260505082333 58 290 0.0 3.0 0.00 0.00 0.00 51 1002.1
20260505081833 58 236 0.0 1.0 0.00 0.00 0.00 51 1002.2
20260505081333 59 254 0.0 3.0 0.00 0.00 0.00 51 1002.0
20260505080833 59 254 0.0 4.0 0.00 0.00 0.00 50 1001.9